Location: Unspecified
(50.7693°N, 0.0000°E)
Time: 13:09:44
(UTC+00:00)

Vanguard 1 Rocket - Pass Details

Date: 24 June 2019
Orbit: 651 x 4225 km, 34.3° (Epoch: 22 July)

Event Time Altitude Azimuth Distance (km) Brightness Sun altitude
Rises 20:01:12 0° 260° (W) 6,471 12.5 1.2°
Reaches altitude 10° 20:07:03 10° 250° (WSW) 4,777 11.6 0.4°
Maximum altitude 20:16:03 25° 202° (SSW) 2,634 9.6 -0.7°
Drops below altitude 10° 20:21:46 10° 149° (SSE) 2,918 9.4 -1.4°
Enters shadow 20:23:54 - 137° (SE) 3,439 9.7 -1.6°
Sets 20:24:22 0° 135° (SE) 3,572 - -1.7°
